Location: Unspecified
(0.0000°N, 0.0000°E)
Time: 22:27:35
(UTC+00:00)

Envisat - Pass Details

Date: 01 October 2018
Orbit: 764 x 766 km, 98.1° (Epoch: 25 August)

Event Time Altitude Azimuth Distance (km) Brightness Sun altitude
Rises 19:45:13 0° 177° (S) 3,227 6.3 -28.9°
Reaches altitude 10° 19:47:34 10° 181° (S) 2,299 5.5 -29.4°
Maximum altitude 19:52:30 55° 258° (WSW) 918 3.6 -30.7°
Drops below altitude 10° 19:57:26 10° 335° (NNW) 2,290 5.7 -31.9°
Sets 19:59:46 0° 340° (NNW) 3,213 6.4 -32.5°
